KC3SPD-13 Weather Reports


time (UTC)temp
F
wind
direction
speed
knots
gust
knots
rain 1hr
in
rain 24hr
in
rain mn
in
humidity
%
barometer
mb
20260504050003 46 34 0.9 1.7 0.00 0.00 0.00 59 966.1
20260504045504 45 18 0.9 1.7 0.00 0.00 0.00 59 966.1
20260504045004 45 45 0.9 1.7 0.00 0.00 0.00 61 966.2
20260504044504 45 20 0.0 1.7 0.00 0.00 0.00 62 966.3
20260504044004 45 8 0.9 1.7 0.00 0.00 0.00 58 966.3
20260504043504 45 25 0.9 1.7 0.00 0.00 0.00 61 966.3
20260504043004 45 40 0.9 2.6 0.00 0.00 0.00 61 966.3
20260504042503 45 37 0.0 1.7 0.00 0.00 0.00 61 966.3
20260504042003 45 347 0.0 1.7 0.00 0.00 0.00 60 966.3
20260504041504 46 282 0.0 1.7 0.00 0.00 0.00 60 966.3
20260504041004 46 26 0.9 2.6 0.00 0.00 0.00 59 966.3
20260504040504 46 350 0.0 1.7 0.00 0.00 0.00 57 966.3
20260504040004 46 290 0.9 1.7 0.00 0.00 0.00 59 966.3
20260504035504 46 231 0.9 1.7 0.00 0.00 0.00 57 966.4
20260504035004 46 21 0.9 2.6 0.00 0.00 0.00 56 966.4
20260504034504 46 238 0.0 1.7 0.00 0.00 0.00 55 966.4
20260504034004 47 56 0.9 2.6 0.00 0.00 0.00 55 966.5
20260504033004 48 31 0.9 4.3 0.00 0.00 0.00 51 966.4
20260504032505 48 274 0.9 4.3 0.00 0.00 0.00 51 966.3
20260504032004 49 36 0.9 5.2 0.00 0.00 0.00 50 966.3
20260504031504 49 317 0.9 5.2 0.00 0.00 0.00 48 966.3
20260504030504 49 65 0.9 2.6 0.00 0.00 0.00 47 966.3
20260504030004 49 283 0.9 2.6 0.00 0.00 0.00 47 966.2
20260504025504 49 352 0.9 4.3 0.00 0.00 0.00 48 966.3
20260504024004 50 44 0.9 2.6 0.00 0.00 0.00 48 966.4
20260504023504 50 359 0.9 2.6 0.00 0.00 0.00 47 966.4
20260504023004 51 336 0.9 4.3 0.00 0.00 0.00 46 966.4
20260504022504 51 309 0.9 1.7 0.00 0.00 0.00 46 966.4
20260504022004 51 37 0.9 2.6 0.00 0.00 0.00 46 966.3
20260504021504 51 345 0.9 2.6 0.00 0.00 0.00 46 966.3
20260504021004 51 261 0.9 2.6 0.00 0.00 0.00 45 966.3
20260504020004 51 21 0.9 2.6 0.00 0.00 0.00 47 966.1
20260504015504 52 224 0.9 1.7 0.00 0.00 0.00 46 966.1
20260504015003 52 23 0.9 1.7 0.00 0.00 0.00 45 966.1
20260504014503 52 314 0.0 1.7 0.00 0.00 0.00 44 966.1
20260504014004 52 242 0.9 2.6 0.00 0.00 0.00 44 966.1
20260504013504 52 252 0.9 1.7 0.00 0.00 0.00 45 966.0
20260504012504 52 256 0.9 2.6 0.00 0.00 0.00 44 965.9
20260504012003 52 307 0.9 2.6 0.00 0.00 0.00 43 965.9
20260504011504 52 66 0.9 2.6 0.00 0.00 0.00 43 965.9
20260504011004 52 282 0.9 1.7 0.00 0.00 0.00 43 966.0
20260504010504 52 281 0.9 2.6 0.00 0.00 0.00 43 966.0
20260504010004 52 315 0.9 1.7 0.00 0.00 0.00 43 966.0
20260504005004 52 261 0.9 1.7 0.00 0.00 0.00 43 966.0
20260504004504 53 306 0.0 0.9 0.00 0.00 0.00 43 966.0
20260504004004 53 4 0.0 1.7 0.00 0.00 0.00 43 966.0
20260504003504 53 297 0.9 1.7 0.00 0.00 0.00 42 965.9
20260504003004 54 291 0.9 2.6 0.00 0.00 0.00 43 965.9
20260504002503 54 312 1.7 5.2 0.00 0.00 0.00 42 965.8
20260504001503 54 332 2.6 5.2 0.00 0.00 0.00 42 965.8
20260504001004 54 328 1.7 6.1 0.00 0.00 0.00 40 965.8
20260504000504 55 339 1.7 4.3 0.00 0.00 0.00 42 965.8
20260503235504 55 306 2.6 4.3 0.00 0.00 0.00 40 965.7
20260503235004 55 298 2.6 5.2 0.00 0.00 0.00 39 965.7
20260503233004 57 298 1.7 4.3 0.00 0.00 0.00 39 965.7
20260503232503 58 283 1.7 6.1 0.00 0.00 0.00 39 965.7
20260503232004 58 287 2.6 6.1 0.00 0.00 0.00 36 965.6
20260503231504 58 294 1.7 4.3 0.00 0.00 0.00 36 965.5
20260503231004 58 292 2.6 5.2 0.00 0.00 0.00 37 965.5
20260503230504 58 267 3.5 8.7 0.00 0.00 0.00 36 965.5
20260503230004 59 278 2.6 6.1 0.00 0.00 0.00 39 965.5
20260503225004 58 320 2.6 5.2 0.00 0.00 0.00 36 965.4
20260503224004 59 301 2.6 7.0 0.00 0.00 0.00 37 965.5
20260503223004 59 298 1.7 5.2 0.00 0.00 0.00 36 965.5
20260503222504 59 283 2.6 6.1 0.00 0.00 0.00 36 965.5
20260503222004 59 279 3.5 7.8 0.00 0.00 0.00 36 965.5
20260503221504 59 291 2.6 7.8 0.00 0.00 0.00 36 965.4
20260503220504 60 359 2.6 5.2 0.00 0.00 0.00 35 965.3
20260503220003 59 268 3.5 6.1 0.00 0.00 0.00 36 965.5
20260503215504 59 283 2.6 7.0 0.00 0.00 0.00 36 965.6
20260503215003 59 305 2.6 7.0 0.00 0.00 0.00 36 965.6
20260503214504 59 278 3.5 8.7 0.00 0.00 0.00 34 965.5
20260503214004 59 306 4.3 7.0 0.00 0.00 0.00 35 965.5
20260503213504 59 291 4.3 8.7 0.00 0.00 0.00 36 965.4
20260503213004 59 358 1.7 6.1 0.00 0.00 0.00 36 965.5
20260503212504 59 324 2.6 6.1 0.00 0.00 0.00 37 965.6
20260503212004 59 308 2.6 6.1 0.00 0.00 0.00 36 965.5
20260503211504 58 297 2.6 6.1 0.00 0.00 0.00 37 965.6
20260503211004 58 276 2.6 5.2 0.00 0.00 0.00 38 966.0
20260503210504 59 297 2.6 6.1 0.00 0.00 0.00 35 965.9
20260503210005 59 329 3.5 6.1 0.00 0.00 0.00 36 965.6
20260503205504 60 290 4.3 7.0 0.00 0.00 0.00 35 965.6
20260503205004 60 288 2.6 7.0 0.00 0.00 0.00 37 965.6
20260503204504 59 313 4.3 7.8 0.00 0.00 0.00 36 965.7
20260503204004 58 328 3.5 8.7 0.00 0.00 0.00 36 965.8
20260503203504 58 283 2.6 7.0 0.00 0.00 0.00 36 965.7
20260503202504 59 309 2.6 5.2 0.00 0.00 0.00 36 966.0
20260503202004 58 300 2.6 5.2 0.00 0.00 0.00 37 965.6
20260503201503 58 321 2.6 7.0 0.00 0.00 0.00 37 966.0
20260503200504 58 307 4.3 7.0 0.00 0.00 0.00 38 965.9
20260503200004 58 296 3.5 7.0 0.00 0.00 0.00 37 965.9
20260503195504 58 301 4.3 11.3 0.00 0.00 0.00 37 966.0
20260503194504 58 24 2.6 7.8 0.00 0.00 0.00 37 966.1
20260503193504 58 329 2.6 7.0 0.00 0.00 0.00 37 966.3
20260503193004 58 288 2.6 7.0 0.00 0.00 0.00 36 966.4
20260503192004 55 273 3.5 7.8 0.00 0.00 0.00 39 966.4
20260503191504 56 249 5.2 7.8 0.00 0.00 0.00 38 967.0
20260503191004 57 300 4.3 7.8 0.00 0.00 0.00 38 966.8
20260503190004 57 314 3.5 8.7 0.00 0.00 0.00 38 966.3
20260503185504 57 278 2.6 7.0 0.00 0.00 0.00 39 966.5
20260503185004 56 282 3.5 7.0 0.00 0.00 0.00 39 966.7
20260503184504 56 301 4.3 7.8 0.00 0.00 0.00 38 966.6
20260503184004 56 303 3.5 6.1 0.00 0.00 0.00 37 966.5
20260503183504 56 284 4.3 7.8 0.00 0.00 0.00 39 966.6
20260503182504 56 299 2.6 5.2 0.00 0.00 0.00 41 967.1
20260503182005 56 297 3.5 7.8 0.00 0.00 0.00 38 966.8
20260503181004 54 290 4.3 11.3 0.00 0.00 0.00 40 967.1
20260503180504 55 0 3.5 7.8 0.00 0.00 0.00 39 966.9
20260503180004 56 345 4.3 8.7 0.00 0.00 0.00 39 966.9
20260503175504 55 314 2.6 6.1 0.00 0.00 0.00 42 966.7
20260503175004 54 295 4.3 10.4 0.00 0.00 0.00 41 966.9
20260503174004 54 333 2.6 8.7 0.00 0.00 0.00 41 967.2
20260503173504 54 306 2.6 7.8 0.00 0.00 0.00 41 967.2
20260503173004 54 276 4.3 10.4 0.00 0.00 0.00 40 967.0
20260503172004 53 315 4.3 8.7 0.00 0.00 0.00 41 967.2
20260503171504 53 317 2.6 7.0 0.00 0.00 0.00 42 967.1
20260503171004 53 261 5.2 8.7 0.00 0.00 0.00 42 967.4
20260503131004 43 302 2.6 6.1 0.00 0.00 0.00 62 968.0
20260503130504 42 271 1.7 5.2 0.00 0.00 0.00 63 968.0
20260503110504 37 280 2.6 7.0 0.00 0.00 0.00 73 967.3
20260503081504 38 290 2.6 4.3 0.00 0.00 0.00 72 966.5
20260503080504 37 302 1.7 5.2 0.00 0.00 0.00 73 966.6
20260503072504 38 303 0.9 2.6 0.00 0.00 0.00 76 966.5
20260503072004 38 302 1.7 2.6 0.00 0.00 0.00 74 966.4
20260503071503 38 312 1.7 2.6 0.00 0.00 0.00 74 966.4
20260503071004 38 305 1.7 4.3 0.00 0.00 0.00 72 966.3